This demonstration page uses our WeatherBlox Daily Observations layout. Learn more.

Left ArrowRight Arrow

39.29038, -76.61219

Hourly Observations for August 31, 2015

Temp ( °F °C ) Dew Point ( °F °C ) Humidity (%) Winds ( mph kmh ) Pressure ( in mb ) Visibility ( mi km ) Precip ( " mm )
12:54 am 00:54 undefined 79 26.1 65 18.3 62 62 undefined N/A 30.08 1019 N/A 0.00 0.00
1:54 am 01:54 undefined 79 26.1 65 18.3 62 62 undefined N/A 30.07 1018 N/A 0.00 0.00
2:54 am 02:54 undefined 78 25.6 65 18.3 64 64 undefined N/A 30.05 1018 N/A 0.00 0.00
3:54 am 03:54 undefined 78 25.6 65 18.3 64 64 undefined N/A 30.05 1018 N/A 0.00 0.00
4:54 am 04:54 undefined 77 25 66 18.9 69 69 undefined N/A 30.05 1018 N/A 0.00 0.00
5:54 am 05:54 undefined 77 25 66 18.9 69 69 undefined N/A 30.05 1018 N/A 0.00 0.00
6:54 am 06:54 undefined 78 25.6 66 18.9 67 67 undefined N/A 30.07 1018 N/A 0.00 0.00
7:54 am 07:54 undefined 77 25 66 18.9 69 69 undefined N/A 30.07 1018 N/A 0.00 0.00
8:54 am 08:54 undefined 81 27.2 66 18.9 61 61 undefined N/A 30.08 1019 N/A 0.00 0.00
9:54 am 09:54 undefined 83 28.3 65 18.3 55 55 undefined N/A 30.08 1019 N/A 0.00 0.00
10:54 am 10:54 undefined 86 30 66 18.9 51 51 undefined N/A 30.09 1019 N/A 0.00 0.00
11:54 am 11:54 undefined 85 29.4 67 19.4 55 55 undefined N/A 30.08 1019 N/A 0.00 0.00
12:54 pm 12:54 undefined 87 30.6 67 19.4 51 51 undefined N/A 30.06 1018 N/A 0.00 0.00
1:54 pm 13:54 undefined 88 31.1 68 20 52 52 undefined N/A 30.05 1018 N/A 0.00 0.00
2:54 pm 14:54 undefined 90 32.2 67 19.4 47 47 undefined N/A 30.03 1017 N/A 0.00 0.00
3:54 pm 15:54 undefined 87 30.6 63 17.2 45 45 undefined N/A 30.03 1017 N/A 0.00 0.00
4:54 pm 16:54 undefined 87 30.6 65 18.3 48 48 undefined N/A 30.02 1017 N/A 0.00 0.00
5:54 pm 17:54 undefined 87 30.6 65 18.3 48 48 undefined N/A 30.02 1017 N/A 0.00 0.00
6:54 pm 18:54 undefined 87 30.6 63 17.2 45 45 undefined N/A 30.01 1016 N/A 0.00 0.00
8:54 pm 20:54 undefined 83 28.3 64 17.8 53 53 undefined N/A 30.03 1017 N/A 0.00 0.00
9:54 pm 21:54 undefined 81 27.2 64 17.8 57 57 undefined N/A 30.04 1017 N/A 0.00 0.00
10:54 pm 22:54 undefined 79 26.1 64 17.8 60 60 undefined N/A 30.05 1018 N/A 0.00 0.00
11:54 pm 23:54 undefined 78 25.6 64 17.8 62 62 undefined N/A 30.05 1018 N/A 0.00 0.00

Powered by AerisWeather